Time,TemperatureF,DewpointF,PressureIn,WindDirection,WindDirectionDegrees,WindSpeedMPH,WindSpeedGustMPH,Humidity,HourlyPrecipIn,Conditions,Clouds,dailyrainin,SolarRadiationWatts/m^2,SoftwareType,DateUTC
2013-05-07 00:10:00,58.4,34.0,29.83,North,3,12.0,14.0,40,0.00,,,0.00,0,weatherlink.com 1.10,2013-05-07 06:10:00,
2013-05-07 00:25:00,57.7,34.0,29.84,North,354,13.0,13.0,41,0.00,,,0.00,0,weatherlink.com 1.10,2013-05-07 06:25:00,
2013-05-07 00:40:00,57.1,34.0,29.84,NNW,339,10.0,13.0,42,0.00,,,0.00,0,weatherlink.com 1.10,2013-05-07 06:40:00,
2013-05-07 00:55:00,55.1,34.0,29.86,NW,304,0.0,3.0,45,0.00,,,0.00,0,weatherlink.com 1.10,2013-05-07 06:55:00,
2013-05-07 01:10:00,52.4,34.0,29.87,ENE,71,4.0,7.0,50,0.00,,,0.00,0,weatherlink.com 1.10,2013-05-07 07:10:00,
2013-05-07 01:25:00,52.4,34.0,29.87,NNE,22,7.0,9.0,49,0.00,,,0.00,0,weatherlink.com 1.10,2013-05-07 07:25:00,
2013-05-07 01:40:00,54.5,34.0,29.86,NNE,14,3.0,9.0,46,0.00,,,0.00,0,weatherlink.com 1.10,2013-05-07 07:40:00,
2013-05-07 01:55:00,53.0,34.0,29.87,North,11,0.0,6.0,48,0.00,,,0.00,0,weatherlink.com 1.10,2013-05-07 07:55:00,
2013-05-07 02:10:00,49.9,34.0,29.87,NNE,12,0.0,0.0,55,0.00,,,0.00,0,weatherlink.com 1.10,2013-05-07 08:10:00,
2013-05-07 02:25:00,49.4,34.0,29.86,WSW,258,5.0,7.0,55,0.00,,,0.00,0,weatherlink.com 1.10,2013-05-07 08:25:00,
2013-05-07 02:40:00,48.4,34.0,29.87,ENE,71,3.0,5.0,57,0.00,,,0.00,0,weatherlink.com 1.10,2013-05-07 08:40:00,
2013-05-07 02:55:00,48.6,32.0,29.87,ENE,73,3.0,5.0,54,0.00,,,0.00,0,weatherlink.com 1.10,2013-05-07 08:55:00,
2013-05-07 03:10:00,48.2,33.0,29.88,ESE,105,3.0,4.0,56,0.00,,,0.00,0,weatherlink.com 1.10,2013-05-07 09:10:00,
2013-05-07 03:25:00,47.7,32.0,29.89,NE,55,3.0,4.0,56,0.00,,,0.00,0,weatherlink.com 1.10,2013-05-07 09:25:00,
2013-05-07 03:40:00,47.8,33.0,29.89,NE,56,2.0,6.0,57,0.00,,,0.00,0,weatherlink.com 1.10,2013-05-07 09:40:00,
2013-05-07 03:55:00,47.8,33.0,29.89,NE,56,0.0,2.0,56,0.00,,,0.00,0,weatherlink.com 1.10,2013-05-07 09:55:00,
2013-05-07 04:10:00,48.3,32.0,29.90,NE,48,5.0,6.0,54,0.00,,,0.00,0,weatherlink.com 1.10,2013-05-07 10:10:00,
2013-05-07 04:25:00,47.6,32.0,29.90,NE,48,0.0,6.0,56,0.00,,,0.00,0,weatherlink.com 1.10,2013-05-07 10:25:00,
2013-05-07 04:40:00,45.3,32.0,29.90,NE,48,2.0,4.0,61,0.00,,,0.00,0,weatherlink.com 1.10,2013-05-07 10:40:00,
2013-05-07 04:56:00,46.0,33.0,29.90,NE,48,2.0,4.0,61,0.00,,,0.00,0,weatherlink.com 1.10,2013-05-07 10:56:00,
2013-05-07 05:11:00,44.6,33.0,29.91,NE,48,1.0,2.0,63,0.00,,,0.00,0,weatherlink.com 1.10,2013-05-07 11:11:00,
2013-05-07 05:26:00,44.6,33.0,29.91,NE,48,0.0,5.0,63,0.00,,,0.00,0,weatherlink.com 1.10,2013-05-07 11:26:00,
2013-05-07 05:41:00,44.9,32.0,29.91,NE,48,3.0,4.0,62,0.00,,,0.00,0,weatherlink.com 1.10,2013-05-07 11:41:00,
2013-05-07 05:56:00,43.6,33.0,29.91,NNE,31,0.0,4.0,66,0.00,,,0.00,0,weatherlink.com 1.10,2013-05-07 11:56:00,
2013-05-07 06:11:00,43.1,33.0,29.92,NNE,31,0.0,0.0,67,0.00,,,0.00,5,weatherlink.com 1.10,2013-05-07 12:11:00,
2013-05-07 06:26:00,42.9,33.0,29.92,NNE,31,0.0,0.0,69,0.00,,,0.00,11,weatherlink.com 1.10,2013-05-07 12:26:00,
2013-05-07 06:41:00,42.2,33.0,29.93,NNE,31,0.0,2.0,70,0.00,,,0.00,16,weatherlink.com 1.10,2013-05-07 12:41:00,
2013-05-07 06:56:00,40.9,33.0,29.93,NNE,31,0.0,0.0,72,0.00,,,0.00,19,weatherlink.com 1.10,2013-05-07 12:56:00,
2013-05-07 07:11:00,40.8,33.0,29.93,NNE,31,0.0,0.0,74,0.00,,,0.00,53,weatherlink.com 1.10,2013-05-07 13:11:00,
2013-05-07 07:26:00,42.0,34.0,29.94,NNE,31,0.0,0.0,73,0.00,,,0.00,91,weatherlink.com 1.10,2013-05-07 13:26:00,
2013-05-07 07:41:00,42.7,36.0,29.95,NNE,31,0.0,0.0,76,0.00,,,0.00,30,weatherlink.com 1.10,2013-05-07 13:41:00,
2013-05-07 07:56:00,43.2,36.0,29.95,NNE,31,0.0,0.0,77,0.00,,,0.00,188,weatherlink.com 1.10,2013-05-07 13:56:00,
2013-05-07 08:11:00,44.7,37.0,29.94,East,100,0.0,2.0,73,0.00,,,0.00,234,weatherlink.com 1.10,2013-05-07 14:11:00,
2013-05-07 08:26:00,45.9,37.0,29.95,WSW,254,0.0,0.0,70,0.00,,,0.00,278,weatherlink.com 1.10,2013-05-07 14:26:00,
2013-05-07 08:41:00,47.3,37.0,29.94,WSW,254,0.0,1.0,68,0.00,,,0.00,322,weatherlink.com 1.10,2013-05-07 14:41:00,
2013-05-07 08:56:00,48.7,38.0,29.94,WSW,254,0.0,2.0,66,0.00,,,0.00,366,weatherlink.com 1.10,2013-05-07 14:56:00,
2013-05-07 09:11:00,50.4,38.0,29.94,WSW,254,2.0,2.0,63,0.00,,,0.00,411,weatherlink.com 1.10,2013-05-07 15:11:00,
2013-05-07 09:27:00,51.9,38.0,29.95,WSW,254,1.0,4.0,59,0.00,,,0.00,455,weatherlink.com 1.10,2013-05-07 15:27:00,
2013-05-07 09:42:00,53.4,37.0,29.94,WSW,258,0.0,4.0,54,0.00,,,0.00,503,weatherlink.com 1.10,2013-05-07 15:42:00,
2013-05-07 09:57:00,56.1,37.0,29.93,South,178,0.0,3.0,49,0.00,,,0.00,543,weatherlink.com 1.10,2013-05-07 15:57:00,
2013-05-07 10:12:00,56.7,37.0,29.93,WSW,239,0.0,5.0,48,0.00,,,0.00,584,weatherlink.com 1.10,2013-05-07 16:12:00,
2013-05-07 10:27:00,57.6,38.0,29.93,WSW,251,3.0,5.0,48,0.00,,,0.00,619,weatherlink.com 1.10,2013-05-07 16:27:00,
2013-05-07 10:42:00,59.8,38.0,29.92,SSE,166,0.0,5.0,44,0.00,,,0.00,654,weatherlink.com 1.10,2013-05-07 16:42:00,
2013-05-07 10:57:00,61.4,38.0,29.92,SW,218,3.0,5.0,42,0.00,,,0.00,687,weatherlink.com 1.10,2013-05-07 16:57:00,
2013-05-07 11:12:00,62.8,39.0,29.92,West,274,4.0,6.0,41,0.00,,,0.00,722,weatherlink.com 1.10,2013-05-07 17:12:00,
2013-05-07 11:27:00,63.2,36.0,29.91,West,275,5.0,5.0,37,0.00,,,0.00,752,weatherlink.com 1.10,2013-05-07 17:27:00,
2013-05-07 11:42:00,64.7,38.0,29.91,WNW,284,6.0,10.0,38,0.00,,,0.00,780,weatherlink.com 1.10,2013-05-07 17:42:00,
2013-05-07 11:57:00,66.2,37.0,29.91,NNW,333,9.0,14.0,34,0.00,,,0.00,805,weatherlink.com 1.10,2013-05-07 17:57:00,
2013-05-07 12:12:00,67.8,39.0,29.91,WNW,289,13.0,16.0,35,0.00,,,0.00,823,weatherlink.com 1.10,2013-05-07 18:12:00,
2013-05-07 12:27:00,68.2,39.0,29.90,NW,311,15.0,17.0,34,0.00,,,0.00,842,weatherlink.com 1.10,2013-05-07 18:27:00,
2013-05-07 12:42:00,69.0,39.0,29.90,NW,323,17.0,21.0,33,0.00,,,0.00,860,weatherlink.com 1.10,2013-05-07 18:42:00,
2013-05-07 12:57:00,69.7,39.0,29.89,NW,304,20.0,22.0,33,0.00,,,0.00,870,weatherlink.com 1.10,2013-05-07 18:57:00,
2013-05-07 13:13:00,71.2,40.0,29.89,NW,313,15.0,23.0,32,0.00,,,0.00,877,weatherlink.com 1.10,2013-05-07 19:13:00,
2013-05-07 13:28:00,71.0,40.0,29.89,NW,322,15.0,19.0,32,0.00,,,0.00,884,weatherlink.com 1.10,2013-05-07 19:28:00,
2013-05-07 13:43:00,72.5,40.0,29.89,NW,308,9.0,19.0,31,0.00,,,0.00,884,weatherlink.com 1.10,2013-05-07 19:43:00,
2013-05-07 13:58:00,73.1,39.0,29.88,NW,320,14.0,18.0,29,0.00,,,0.00,886,weatherlink.com 1.10,2013-05-07 19:58:00,
2013-05-07 14:13:00,73.8,39.0,29.88,NW,310,15.0,18.0,28,0.00,,,0.00,886,weatherlink.com 1.10,2013-05-07 20:13:00,
2013-05-07 14:28:00,74.4,37.0,29.88,NW,321,14.0,21.0,26,0.00,,,0.00,879,weatherlink.com 1.10,2013-05-07 20:28:00,
2013-05-07 14:43:00,75.0,38.0,29.88,NW,306,12.0,19.0,26,0.00,,,0.00,868,weatherlink.com 1.10,2013-05-07 20:43:00,
2013-05-07 14:58:00,75.8,38.0,29.88,NW,306,11.0,20.0,26,0.00,,,0.00,865,weatherlink.com 1.10,2013-05-07 20:58:00,
2013-05-07 15:13:00,75.8,38.0,29.87,WNW,283,11.0,20.0,25,0.00,,,0.00,863,weatherlink.com 1.10,2013-05-07 21:13:00,
2013-05-07 15:28:00,76.6,39.0,29.87,NW,325,10.0,18.0,26,0.00,,,0.00,882,weatherlink.com 1.10,2013-05-07 21:28:00,
2013-05-07 15:43:00,75.5,38.0,29.86,WNW,301,14.0,21.0,26,0.00,,,0.00,856,weatherlink.com 1.10,2013-05-07 21:43:00,
2013-05-07 15:58:00,77.0,39.0,29.86,NW,322,10.0,19.0,25,0.00,,,0.00,810,weatherlink.com 1.10,2013-05-07 21:58:00,
2013-05-07 16:13:00,76.7,39.0,29.86,WNW,300,11.0,19.0,26,0.00,,,0.00,805,weatherlink.com 1.10,2013-05-07 22:13:00,
2013-05-07 16:28:00,76.7,37.0,29.85,WNW,294,10.0,20.0,24,0.00,,,0.00,759,weatherlink.com 1.10,2013-05-07 22:28:00,
2013-05-07 16:43:00,77.6,38.0,29.85,NNW,329,10.0,19.0,24,0.00,,,0.00,731,weatherlink.com 1.10,2013-05-07 22:43:00,
2013-05-07 16:58:00,77.2,38.0,29.86,North,357,10.0,17.0,24,0.00,,,0.00,689,weatherlink.com 1.10,2013-05-07 22:58:00,
2013-05-07 17:13:00,76.9,39.0,29.85,NW,319,11.0,15.0,26,0.00,,,0.00,647,weatherlink.com 1.10,2013-05-07 23:13:00,
2013-05-07 17:28:00,77.5,38.0,29.86,NNW,344,11.0,13.0,24,0.00,,,0.00,628,weatherlink.com 1.10,2013-05-07 23:28:00,
2013-05-07 17:43:00,76.4,37.0,29.86,NE,43,7.0,13.0,24,0.00,,,0.00,102,weatherlink.com 1.10,2013-05-07 23:43:00,
2013-05-07 17:58:00,76.0,38.0,29.86,NE,56,14.0,17.0,25,0.00,,,0.00,476,weatherlink.com 1.10,2013-05-07 23:58:00,
2013-05-07 18:13:00,76.3,37.0,29.87,NNE,31,7.0,16.0,24,0.00,,,0.00,434,weatherlink.com 1.10,2013-05-08 00:13:00,
2013-05-07 18:28:00,75.5,37.0,29.88,ENE,58,11.0,18.0,25,0.00,,,0.00,383,weatherlink.com 1.10,2013-05-08 00:28:00,
2013-05-07 18:43:00,74.6,37.0,29.88,ENE,57,10.0,19.0,26,0.00,,,0.00,341,weatherlink.com 1.10,2013-05-08 00:43:00,
2013-05-07 18:58:00,73.5,36.0,29.88,NE,52,9.0,15.0,26,0.00,,,0.00,63,weatherlink.com 1.10,2013-05-08 00:58:00,
2013-05-07 19:13:00,72.3,35.0,29.88,NE,56,8.0,16.0,26,0.00,,,0.00,54,weatherlink.com 1.10,2013-05-08 01:13:00,
2013-05-07 19:28:00,71.6,36.0,29.89,NE,48,12.0,14.0,27,0.00,,,0.00,127,weatherlink.com 1.10,2013-05-08 01:28:00,
2013-05-07 19:43:00,71.1,35.0,29.90,NNE,22,12.0,12.0,27,0.00,,,0.00,46,weatherlink.com 1.10,2013-05-08 01:43:00,
2013-05-07 19:58:00,71.5,36.0,29.91,NNE,23,7.0,11.0,27,0.00,,,0.00,93,weatherlink.com 1.10,2013-05-08 01:58:00,
2013-05-07 20:13:00,70.8,35.0,29.92,NE,48,7.0,11.0,27,0.00,,,0.00,54,weatherlink.com 1.10,2013-05-08 02:13:00,
2013-05-07 20:28:00,69.4,35.0,29.93,NNE,25,6.0,9.0,28,0.00,,,0.00,21,weatherlink.com 1.10,2013-05-08 02:28:00,
2013-05-07 20:43:00,67.9,34.0,29.93,NE,38,4.0,9.0,29,0.00,,,0.00,12,weatherlink.com 1.10,2013-05-08 02:43:00,
2013-05-07 20:58:00,65.7,35.0,29.94,NNE,30,4.0,7.0,32,0.00,,,0.00,5,weatherlink.com 1.10,2013-05-08 02:58:00,
2013-05-07 21:13:00,64.5,35.0,29.95,NNE,21,4.0,5.0,33,0.00,,,0.00,0,weatherlink.com 1.10,2013-05-08 03:13:00,
2013-05-07 21:28:00,64.6,35.0,29.96,North,9,5.0,8.0,33,0.00,,,0.00,0,weatherlink.com 1.10,2013-05-08 03:28:00,
2013-05-07 21:43:00,63.6,35.0,29.98,NE,38,2.0,6.0,34,0.00,,,0.00,0,weatherlink.com 1.10,2013-05-08 03:43:00,
2013-05-07 21:58:00,63.8,35.0,29.98,North,350,0.0,6.0,34,0.00,,,0.00,0,weatherlink.com 1.10,2013-05-08 03:58:00,
2013-05-07 22:13:00,64.4,35.0,29.99,NW,310,1.0,6.0,34,0.00,,,0.00,0,weatherlink.com 1.10,2013-05-08 04:13:00,
2013-05-07 22:28:00,64.0,35.0,30.00,NNW,348,4.0,10.0,34,0.00,,,0.00,0,weatherlink.com 1.10,2013-05-08 04:28:00,
2013-05-07 22:43:00,62.0,35.0,30.00,NNE,30,0.0,5.0,36,0.00,,,0.00,0,weatherlink.com 1.10,2013-05-08 04:43:00,
2013-05-07 22:58:00,60.9,34.0,30.00,NE,56,2.0,6.0,37,0.00,,,0.00,0,weatherlink.com 1.10,2013-05-08 04:58:00,
2013-05-07 23:13:00,62.3,35.0,30.00,ESE,111,10.0,11.0,36,0.00,,,0.00,0,weatherlink.com 1.10,2013-05-08 05:13:00,
2013-05-07 23:28:00,61.9,34.0,30.01,West,262,0.0,6.0,36,0.00,,,0.00,0,weatherlink.com 1.10,2013-05-08 05:28:00,
2013-05-07 23:43:00,59.6,34.0,30.02,ESE,114,2.0,4.0,39,0.00,,,0.00,0,weatherlink.com 1.10,2013-05-08 05:43:00,
2013-05-07 23:58:00,58.4,35.0,30.02,North,358,3.0,8.0,41,0.00,,,0.00,0,weatherlink.com 1.10,2013-05-08 05:58:00,